Weather Roundup
Issued by NWS Springfield, MO

Home | Current Version | Previous Version | Text Only | Print | Product List | Glossary On
Versions: 1 2 3 4 5 6 7 8 9 10 11 12 13 14 15 16 17 18 19 20 21 22 23 24 25 26 27 28 29 30 31 32 33 34 35 36 37 38 39 40 41 42 43 44 45 46 47 48 49 50
000
NZUS99 KSGF 200807
HRRSGF

HOURLY WEATHER
NATIONAL WEATHER SERVICE SPRINGFIELD MO
300 AM CDT SAT SEP 20 2014

......SGF CWA......

CITY           SKY/WX    TMP DP  RH WIND       PRES   REMARKS
SPRINGFIELD    CLEAR     65  62  90 S6        30.00F
JOPLIN         CLEAR     68  67  96 S8        29.99F
WEST PLAINS    CLEAR     64  61  90 S3        30.04F
ROLLA          CLEAR     65  62  90 S9        29.98F
OSAGE BEACH    CLEAR     63  61  94 S5        29.98S
BRANSON        CLEAR     64  63  94 CALM      30.03S

......SURROUNDING SGF CWA......

CITY           SKY/WX    TMP DP  RH WIND       PRES   REMARKS
CHANUTE        CLEAR     67  67 100 S7        29.97F FOG
PARSONS        CLEAR     67  66  97 CALM      29.98F FOG
EMPORIA        PTCLDY    68  67  96 S13       29.95F FOG
GROVE OK       CLEAR     66  66 100 CALM      30.00F FOG
ROGERS AR      CLEAR     66  64  93 SE5       30.03F
SILOAM SPRINGS CLEAR     66  61  82 SE5       30.02F
HARRISON AR    CLEAR     65  65 100 CALM      30.03F FOG
NEAR YELLVILLE CLEAR     63  57  82 CALM      30.02S

......KANSAS AND MISSOURI......

CITY           SKY/WX    TMP DP  RH WIND       PRES   REMARKS
KANSAS CTY INT PTCLDY    68  66  93 S15       29.93S
DOWNTOWN KC    PTCLDY    72  67  84 S10       29.93S
COLUMBIA       CLEAR     61  60  97 S6        29.98R FOG
SEDALIA        CLEAR     68  63  84 SW9       29.96F
ST JOSEPH      CLEAR     68  66  93 S10       29.90F
ST LOUIS       PTCLDY    68  59  73 S3        29.99R
SPIRIT OF STL  CLEAR     58  57  97 CALM      29.98S FOG
KIRKSVILLE     CLEAR     65  62  90 S9        29.94S
WICHITA        PTCLDY    70  67  90 S9        29.97S
TOPEKA         CLEAR     70  68  93 S10       29.92F FOG
OLATHE         PTCLDY    67  66  97 SW7       29.95S FOG

......TENNESSEE......

CITY           SKY/WX    TMP DP  RH WIND       PRES   REMARKS
MEMPHIS        CLEAR     73  66  78 SE3       30.01F
NASHVILLE      CLEAR     71  64  78 S9        30.08S

......ARKANSAS.......

CITY           SKY/WX    TMP DP  RH WIND       PRES   REMARKS
FAYETTEVILLE   CLEAR     63  63 100 CALM      30.03R FOG
FT SMITH       CLEAR     70  67  90 NE5       29.99R
LITTLE ROCK    CLEAR     70  66  87 CALM      30.00F

......OKLAHOMA.......

CITY           SKY/WX    TMP DP  RH WIND       PRES   REMARKS
TULSA          PTCLDY    69  67  93 SE3       29.97R FOG
PONCA CITY     PTCLDY    73  69  87 S6        29.98R
MCALESTER      MOCLDY    70  68  93 SE3       29.99R
OKLAHOMA CITY  MOCLDY    69  66  90 SE6       29.99S

......IOWA............

CITY           SKY/WX    TMP DP  RH WIND       PRES   REMARKS
DES MOINES     CLOUDY    71  66  84 N9        29.87R
QUAD CITIES    MOCLDY    64  57  78 VRB5      29.90F

......ILLINOIS........

CITY           SKY/WX    TMP DP  RH WIND       PRES   REMARKS
QUINCY         PTCLDY    62  58  86 S8        29.95S
CHICAGO        MOCLDY    63  51  65 SW13G22   29.92F




USA.gov is the U.S. government's official web portal to all federal, state and local government web resources and services.